This is the latest recevied weather packets stored in our database for station/object WA1NHP. If no packets are shown the sender has not sent any weather packets the latest 1 day(s).
| Time | Temp. | Humidity | Pressure | Rain* | Wind** | Luminosity | Snow |
|---|---|---|---|---|---|---|---|
| 1778033043 | 16.11° C | 75% | 1023.9 hPa | 0 mm | 0.45 m/s, 192° | 0 W/m² | - |
| 1778032444 | 16.67° C | 76% | 1023.9 hPa | 0 mm | 0.45 m/s, 180° | 0 W/m² | - |
| 1778031844 | 16.67° C | 76% | 1023.9 hPa | 0 mm | 0.45 m/s, 199° | 0 W/m² | - |
| 1778031244 | 16.67° C | 76% | 1023.9 hPa | 0 mm | 0.89 m/s, 202° | 0 W/m² | - |
| 1778030644 | 16.67° C | 77% | 1023.9 hPa | 0 mm | 1.79 m/s, 217° | 0 W/m² | - |
| 1778030044 | 16.67° C | 79% | 1023.9 hPa | 0 mm | 0.89 m/s, 198° | 0 W/m² | - |
| 1778029445 | 16.67° C | 80% | 1023.9 hPa | 0 mm | 0.89 m/s, 198° | 0 W/m² | - |
| 1778028843 | 16.67° C | 80% | 1023.9 hPa | 0 mm | 0.89 m/s, 207° | 0 W/m² | - |
| 1778028243 | 16.67° C | 81% | 1023.9 hPa | 0 mm | 0.89 m/s, 222° | 0 W/m² | - |
| 1778027644 | 16.67° C | 83% | 1023.9 hPa | 0 mm | 1.34 m/s, 177° | 0 W/m² | - |
| 1778027044 | 16.67° C | 83% | 1023.9 hPa | 0 mm | 0 m/s | 0 W/m² | - |
| 1778026444 | 17.22° C | 81% | 1023.9 hPa | 0 mm | 0.45 m/s, 234° | 0 W/m² | - |
| 1778025844 | 17.78° C | 76% | 1023.9 hPa | 0 mm | 0.45 m/s, 248° | 0 W/m² | - |
| 1778025244 | 19.44° C | 68% | 1023.9 hPa | 0 mm | 0.45 m/s, 221° | 0 W/m² | - |
| 1778024643 | 21.11° C | 57% | 1023.9 hPa | 0 mm | 1.34 m/s, 241° | 0 W/m² | - |
| 1778024044 | 21.11° C | 53% | 1023.9 hPa | 0 mm | 5.81 m/s, 194° | 0 W/m² | - |
| 1778023444 | 21.67° C | 53% | 1023.9 hPa | 0 mm | 2.68 m/s, 200° | 0 W/m² | - |
| 1778022844 | 21.67° C | 52% | 1023.9 hPa | 0 mm | 2.24 m/s, 204° | 5 W/m² | - |
| 1778022244 | 22.22° C | 52% | 1023.9 hPa | 0 mm | 2.24 m/s, 196° | 28 W/m² | - |
| 1778021644 | 22.22° C | 51% | 1023.9 hPa | 0 mm | 4.92 m/s, 201° | 76 W/m² | - |
| 1778021044 | 22.22° C | 51% | 1023.9 hPa | 0 mm | 3.13 m/s, 186° | 62 W/m² | - |
| 1778020443 | 22.78° C | 51% | 1023.9 hPa | 0 mm | 7.6 m/s, 228° | 56 W/m² | - |
| 1778019844 | 22.78° C | 50% | 1023.9 hPa | 0 mm | 5.36 m/s, 210° | 79 W/m² | - |
| 1778019244 | 23.33° C | 50% | 1023.9 hPa | 0 mm | 4.47 m/s, 201° | 104 W/m² | - |
| 1778018643 | 23.33° C | 49% | 1023.9 hPa | 0 mm | 2.24 m/s, 223° | 105 W/m² | - |
* Rain latest hour (hover to see other rain measurements)
** Current wind speed in m/s (hover to see current wind gust speed)